FW4331 Weather Reports


time (UTC)temp
C
wind
direction
speed
KPH
gust
KPH
rain 1hr
cm
rain 24hr
cm
rain mn
cm
humidity
%
barometer
mb
20230208171617 17 326 4.8 17.7 0.00 0.00 0.00 32 1022.5
20230208164556 16 4 9.7 20.9 0.00 0.00 0.00 36 1022.9
20230208163056 16 302 4.8 14.5 0.00 0.00 0.00 37 1022.8
20230208161548 16 64 3.2 12.9 0.00 0.00 0.00 40 1022.8
20230208160051 16 346 9.7 20.9 0.00 0.00 0.00 39 1022.9
20230208153040 15 319 3.2 8.0 0.00 0.00 0.00 42 1022.6
20230208151529 13 41 3.2 6.4 0.00 0.00 0.00 43 1022.5
20230208150024 12 120 0.0 0.0 0.00 0.00 0.00 44 1022.5
20230208144519 11 190 0.0 0.0 0.00 0.00 0.00 46 1022.4
20230208143014 10 229 0.0 0.0 0.00 0.00 0.00 49 1022.3
20230208141511 9 54 0.0 0.0 0.00 0.00 0.00 52 1022.4
20230208140004 8 323 0.0 0.0 0.00 0.00 0.00 54 1022.1
20230208134500 7 243 0.0 0.0 0.00 0.00 0.00 58 1021.9
20230208133102 7 248 0.0 0.0 0.00 0.00 0.00 58 1021.6
20230208131553 7 356 0.0 0.0 0.00 0.00 0.00 58 1021.4
20230208130148 6 307 0.0 0.0 0.00 0.00 0.00 59 1021.2
20230208123103 6 229 0.0 0.0 0.00 0.00 0.00 59 1020.7
20230208121524 6 231 0.0 3.2 0.00 0.00 0.00 55 1020.6
20230208113005 7 21 1.6 8.0 0.00 0.00 0.00 55 1019.9
20230208111503 6 18 1.6 4.8 0.00 0.00 0.00 56 1019.5
20230208110100 6 264 0.0 0.0 0.00 0.00 0.00 54 1019.2
20230208104608 7 300 0.0 0.0 0.00 0.00 0.00 54 1019.2
20230208103056 7 73 0.0 0.0 0.00 0.00 0.00 53 1018.8
20230208101550 7 73 0.0 0.0 0.00 0.00 0.00 54 1018.7
20230208100056 7 122 0.0 6.4 0.00 0.00 0.00 55 1018.6
20230208094602 7 225 0.0 0.0 0.00 0.00 0.00 54 1018.7
20230208091533 7 200 0.0 0.0 0.00 0.00 0.00 53 1018.4
20230208090038 7 271 0.0 0.0 0.00 0.00 0.00 53 1018.4
20230208084505 7 273 0.0 0.0 0.00 0.00 0.00 53 1018.6
20230208083003 7 273 0.0 0.0 0.00 0.00 0.00 52 1018.1
20230208081605 7 273 0.0 0.0 0.00 0.00 0.00 53 1018.4
20230208080104 7 243 0.0 0.0 0.00 0.00 0.00 52 1018.4
20230208074522 7 191 0.0 1.6 0.00 0.00 0.00 51 1018.4
20230208073146 8 48 0.0 3.2 0.00 0.00 0.00 50 1018.6
20230208071540 8 30 3.2 8.0 0.00 0.00 0.00 50 1018.9
20230208070043 8 18 4.8 12.9 0.00 0.00 0.00 49 1018.8
20230208063103 8 10 3.2 6.4 0.00 0.00 0.00 48 1018.6
20230208061601 9 278 0.0 0.0 0.00 0.00 0.00 47 1018.1
20230208060055 10 243 0.0 3.2 0.00 0.00 0.00 46 1018.2
20230208054551 10 293 0.0 3.2 0.00 0.00 0.00 46 1018.4
20230208053048 10 279 0.0 4.8 0.00 0.00 0.00 46 1018.4
20230208051550 10 240 1.6 6.4 0.00 0.00 0.00 46 1018.3
20230208050042 10 248 0.0 8.0 0.00 0.00 0.00 46 1018.3
20230208044543 9 273 1.6 6.4 0.00 0.00 0.00 47 1018.2
20230208043041 9 267 1.6 8.0 0.00 0.00 0.00 47 1018.1
20230208034659 8 231 0.0 3.2 0.00 0.00 0.00 49 1018.3
20230208031656 8 279 0.0 3.2 0.00 0.00 0.00 49 1018.6
20230208030020 7 336 0.0 0.0 0.00 0.00 0.00 51 1019.1
20230208024519 7 224 0.0 1.6 0.00 0.00 0.00 50 1018.9
20230208023017 7 243 0.0 3.2 0.00 0.00 0.00 50 1019.1
20230208021526 7 262 1.6 3.2 0.00 0.00 0.00 50 1019.4
20230208014541 7 225 1.6 4.8 0.00 0.00 0.00 50 1019.0
20230208013112 8 219 0.0 4.8 0.00 0.00 0.00 48 1019.2
20230208011552 8 200 1.6 4.8 0.00 0.00 0.00 47 1019.3
20230208010051 8 174 0.0 1.6 0.00 0.00 0.00 46 1019.5
20230208004546 8 190 0.0 3.2 0.00 0.00 0.00 46 1019.7
20230208003058 8 165 0.0 1.6 0.00 0.00 0.00 46 1019.7
20230208001544 8 194 1.6 4.8 0.00 0.00 0.00 45 1019.7
20230208000042 9 195 1.6 4.8 0.00 0.00 0.00 45 1019.9
20230207234539 9 245 0.0 6.4 0.00 0.00 0.00 44 1019.9
20230207233038 9 186 3.2 8.0 0.00 0.00 0.00 43 1019.8
20230207231536 10 200 3.2 6.4 0.00 0.00 0.00 43 1019.9
20230207230130 10 190 3.2 12.9 0.00 0.00 0.00 42 1019.9
20230207224523 10 199 3.2 8.0 0.00 0.00 0.00 42 1020.1
20230207220041 10 219 6.4 16.1 0.00 0.00 0.00 40 1020.1
20230207214503 10 208 4.8 12.9 0.00 0.00 0.00 41 1020.2
20230207213103 10 200 8.0 16.1 0.00 0.00 0.00 40 1020.2
20230207211558 10 247 8.0 19.3 0.00 0.00 0.00 40 1020.4
20230207210155 10 248 8.0 17.7 0.00 0.00 0.00 39 1020.5
20230207204555 10 205 9.7 20.9 0.00 0.00 0.00 39 1020.8
20230207203049 11 219 11.3 19.3 0.00 0.00 0.00 39 1021.1
20230207201546 10 175 6.4 19.3 0.00 0.00 0.00 39 1021.1
20230207200043 10 176 8.0 17.7 0.00 0.00 0.00 39 1021.1
20230207194545 10 216 8.0 17.7 0.00 0.00 0.00 39 1021.3
20230207193034 10 147 8.0 16.1 0.00 0.00 0.00 39 1021.5
20230207191554 10 285 12.9 20.9 0.00 0.00 0.00 40 1021.6
20230207190052 10 226 8.0 19.3 0.00 0.00 0.00 40 1022.2
20230207184517 10 214 11.3 20.9 0.00 0.00 0.00 40 1022.4
20230207183016 9 226 8.0 17.7 0.00 0.00 0.00 42 1022.9
20230207181511 10 226 8.0 20.9 0.00 0.00 0.00 41 1023.0
20230207180004 9 229 9.7 16.1 0.00 0.00 0.00 42 1023.0
20230207173140 8 245 8.0 17.7 0.00 0.00 0.00 44 1024.0